[[{"header":{"parameterUnit":"m.s-1","parameterCategory":2,"la1":30.2991,"la2":30.254,"lo1":-89.0895,"lo2":-89.0444,"dy":0.0017,"dx":0.0017,"nx":28,"ny":28,"refTime":"2024-03-14T03:00:00:Z","depth":"0","parameterNumber":2,"parameterNumberName":"U-component_of_CURRENTS"},"data":[0,0,0,0,0,0,0,0,0,0,0,0,0,0,0,0,0,0,0,0,0,0,0,0,0,0,0,0,0,0,0,0,0,0,0,0,0,0,0,0,0,0,0,0,0,0,0,0,0,0,0,0,0,0,0,0,0,0,-0.3032,-0.3033,0,-0.3064,-0.3064,-0.3064,-0.299,-0.2988,-0.2986,-0.2984,-0.2939,-0.294,-0.2941,0,0,0,0,0,0,0,0,0,0,0,0,0,-0.2914,-0.2916,-0.3032,-0.3033,-0.3034,-0.3064,-0.3064,-0.3064,-0.299,-0.2988,-0.2985,-0.2983,-0.2939,-0.294,-0.2941,0,0,0,0,0,0,0,0,0,0,0,0,0,-0.2954,-0.2916,-0.3032,-0.3003,-0.3001,-0.3064,-0.3064,-0.3064,-0.2991,-0.2987,-0.2984,-0.2982,-0.2939,-0.294,-0.2941,-0.3008,0,0,-0.2944,-0.2945,0,0,0,0,0,0,0,0,-0.2951,-0.2958,-0.3007,-0.3005,-0.3003,-0.3023,-0.3006,-0.3043,-0.2991,-0.2991,-0.2984,-0.298,-0.2965,-0.2964,-0.2972,-0.3006,-0.3004,-0.2944,-0.2945,-0.2945,-0.2946,0,0,0,0,0,0,0,-0.2949,-0.2956,-0.3041,-0.3008,-0.3006,-0.2991,-0.2993,-0.3013,-0.299,-0.299,-0.2986,-0.2997,-0.2963,-0.2972,-0.2971,-0.3004,-0.2944,-0.2945,-0.2946,-0.2946,-0.303,-0.3032,0,0,0,0,0,0,-0.2956,-0.2954,-0.304,-0.3042,-0.2974,-0.2996,-0.2998,-0.3017,-0.2991,-0.2986,-0.2999,-0.2993,-0.2971,-0.2969,-0.2969,-0.2997,-0.2945,-0.2946,-0.2947,-0.3029,-0.3031,-0.3033,0,0,0,0,0,0,-0.2954,-0.2964,-0.3039,-0.3001,-0.3009,-0.3001,-0.3023,-0.3019,-0.3014,-0.3,-0.2991,-0.2996,-0.2969,-0.2967,-0.298,-0.2996,-0.2947,-0.2948,-0.3027,-0.3029,-0.3032,-0.3085,0,0,0,0,0,0,-0.295,-0.2963,-0.2978,-0.3002,-0.3012,-0.3076,-0.3026,-0.3022,-0.3028,-0.3019,-0.2996,-0.2989,-0.2966,-0.2978,-0.2981,-0.2997,-0.2949,-0.3025,-0.3028,-0.3031,-0.3082,-0.3089,-0.3096,0,0,0,0,0,-0.2946,-0.2979,-0.2978,-0.2989,-0.3033,-0.3078,-0.3082,-0.3063,-0.3031,-0.3043,-0.3021,-0.2989,-0.2998,-0.2981,-0.2984,-0.3,-0.3024,-0.3027,-0.3031,-0.3078,-0.3088,-0.3096,0,0,0,0,0,0,-0.2932,-0.2977,-0.2975,-0.3019,-0.3047,-0.3067,-0.308,-0.3071,-0.3067,-0.3051,-0.3019,-0.3013,-0.3028,-0.3018,-0.3,-0.3034,-0.3003,-0.3008,-0.3039,-0.3048,-0.3055,-0.3023,-0.295,0,0,0,0,0,-0.2942,-0.2974,-0.3014,-0.3046,-0.3064,-0.3074,-0.3088,-0.3082,-0.3086,-0.308,-0.3065,-0.3051,-0.3054,-0.305,-0.3054,-0.3084,-0.3042,-0.3094,-0.3102,-0.3108,-0.3085,-0.3047,-0.3048,-0.3044,-0.3044,-0.3044,0,0,-0.2943,-0.2973,-0.2989,-0.3045,-0.3061,-0.3095,-0.3073,-0.3104,-0.3116,-0.308,-0.3086,-0.3082,-0.3069,-0.309,-0.3096,-0.3077,-0.3093,-0.3112,-0.3117,-0.3091,-0.3051,-0.3051,-0.305,-0.3047,-0.3046,-0.3046,0,0,-0.2961,-0.2993,-0.3022,-0.3056,-0.3098,-0.3113,-0.3124,-0.3152,-0.3145,-0.3173,-0.314,-0.3138,-0.3156,-0.3137,-0.3132,-0.3186,-0.3135,-0.32,-0.3206,-0.3171,-0.317,-0.3168,-0.3133,-0.3127,-0.32,-0.32,-0.32,0,-0.2954,-0.2999,-0.3038,-0.3077,-0.3097,-0.3121,-0.3149,-0.3169,-0.3191,-0.3186,-0.3176,-0.3176,-0.3169,-0.3169,-0.3184,-0.3198,-0.317,-0.3173,-0.3177,-0.3174,-0.3172,-0.3135,-0.3128,-0.3203,-0.3202,-0.3202,-0.3202,0,-0.2993,-0.3028,-0.3053,-0.3104,-0.3138,-0.3171,-0.3209,-0.3229,-0.3228,-0.3231,-0.3236,-0.3231,-0.3215,-0.3231,-0.3223,-0.3212,-0.3198,-0.3192,-0.3147,-0.3175,-0.3136,-0.3128,-0.3207,-0.3206,-0.3205,-0.3204,0,0,-0.2959,-0.3057,-0.3058,-0.3078,-0.315,-0.3175,-0.3217,-0.3246,-0.3245,-0.3268,-0.3255,-0.3269,-0.325,-0.3242,-0.3237,-0.3212,-0.3185,-0.3197,-0.3194,-0.3147,-0.3105,-0.307,-0.3057,-0.3181,-0.318,-0.3179,-0.3091,0,-0.2962,-0.3023,-0.3077,-0.3119,-0.3148,-0.3195,-0.3226,-0.3256,-0.3272,-0.3276,-0.3267,-0.326,-0.3262,-0.3251,-0.3231,-0.3198,-0.3164,-0.3209,-0.3096,-0.3092,-0.3046,-0.3047,-0.2946,-0.2857,-0.3082,-0.3081,-0.308,0,-0.2958,-0.3003,-0.3044,-0.3109,-0.3125,-0.3153,-0.3185,-0.3221,-0.3248,-0.3259,-0.3256,-0.3252,-0.323,-0.3225,-0.3157,-0.3188,-0.3141,-0.3112,-0.3108,-0.304,-0.3041,-0.2864,-0.2833,-0.2824,-0.3067,-0.3068,-0.3069,0,-0.2876,-0.2964,-0.2985,-0.3012,-0.3101,-0.3113,-0.315,-0.3194,-0.3214,-0.3234,-0.3241,-0.3224,-0.3204,-0.3155,-0.3115,-0.3127,-0.3033,-0.304,-0.2958,-0.2955,-0.2825,-0.2814,-0.2751,-0.2963,-0.2964,-0.2964,-0.2964,0,-0.2838,-0.2851,-0.2944,-0.2956,-0.2969,-0.3054,-0.3062,-0.3103,-0.3155,-0.3163,-0.3209,-0.32,-0.3183,-0.3144,-0.31,-0.3005,-0.3014,-0.2939,-0.2922,-0.2847,-0.2838,-0.2789,-0.2809,-0.2961,-0.2961,-0.2962,-0.2962,0,-0.2729,-0.2799,-0.2822,-0.2908,-0.2927,-0.2927,-0.3006,-0.3023,-0.3089,-0.3101,-0.3107,-0.316,-0.3115,-0.3094,-0.3013,-0.2973,-0.2841,-0.2855,-0.2773,-0.2748,-0.2664,-0.2691,-0.2556,-0.2483,-0.2737,-0.2736,-0.2734,0,-0.2674,-0.2676,-0.2749,-0.276,-0.2791,-0.2822,-0.2848,-0.2952,-0.298,-0.3064,-0.3057,-0.3058,-0.3032,-0.2936,-0.2865,-0.277,-0.2758,-0.2626,-0.2626,-0.2628,-0.2646,-0.2648,-0.2597,-0.248,-0.2477,-0.2475,-0.2472,0,-0.2553,-0.2576,-0.2598,-0.2624,-0.265,-0.2679,-0.2727,-0.2748,-0.2866,-0.2898,-0.2922,-0.2916,-0.2873,-0.2755,-0.2673,-0.2601,-0.2567,-0.2568,-0.2575,-0.2435,-0.2423,-0.2356,-0.2588,-0.2449,-0.2451,-0.2453,-0.2454,-0.2455,-0.2434,-0.2421,-0.2452,-0.2456,-0.2494,-0.2503,-0.247,-0.2558,-0.258,-0.2597,-0.2707,-0.2673,-0.2659,-0.2536,-0.2479,-0.2359,-0.2387,-0.2284,-0.2315,-0.2316,-0.2246,-0.2436,-0.2286,-0.2287,-0.2288,-0.2289,-0.229,0,-0.2279,-0.2283,-0.2288,-0.2289,-0.2261,-0.2333,-0.236,-0.2312,-0.2284,-0.2373,-0.2374,-0.2395,-0.2306,-0.2308,-0.2223,-0.2134,-0.2074,-0.2087,-0.2062,-0.2018,-0.2172,-0.2164,-0.1975,-0.1975,-0.1975,-0.1975,-0.1975,-0.1975,-0.2196,-0.2144,-0.215,-0.204,-0.2041,-0.1944,-0.1919,-0.1891,-0.1915,-0.1904,-0.1955,-0.2046,-0.209,-0.2231,-0.2124,-0.2032,-0.1979,-0.1914,-0.1938,-0.2073,-0.2095,-0.2115,-0.2112,-0.1915,-0.1915,-0.1701,-0.17,-0.1699]},{"header":{"parameterUnit":"m.s-1","parameterCategory":2,"la1":30.2991,"la2":30.254,"lo1":-89.0895,"lo2":-89.0444,"dy":0.0017,"dx":0.0017,"nx":28,"ny":28,"refTime":"2024-03-14T03:00:00:Z","depth":"0","parameterNumber":3,"parameterNumberName":"V-component_of_CURRENTS"},"data":[0,0,0,0,0,0,0,0,0,0,0,0,0,0,0,0,0,0,0,0,0,0,0,0,0,0,0,0,0,0,0,0,0,0,0,0,0,0,0,0,0,0,0,0,0,0,0,0,0,0,0,0,0,0,0,0,0,0,-0.0259,-0.0258,0,-0.0176,-0.0175,-0.0174,-0.0113,-0.0112,-0.0112,-0.0111,-0.0002,0.0,0.0003,0,0,0,0,0,0,0,0,0,0,0,0,0,-0.0308,-0.0307,-0.0259,-0.0258,-0.0257,-0.0176,-0.0175,-0.0173,-0.0113,-0.0112,-0.0112,-0.0111,-0.0003,-0.0,0.0003,0,0,0,0,0,0,0,0,0,0,0,0,0,-0.0261,-0.0307,-0.0259,-0.0218,-0.0214,-0.0176,-0.0175,-0.0173,-0.0113,-0.0112,-0.0112,-0.0111,-0.0004,-0.0,0.0003,0.0014,0,0,0.0015,0.0017,0,0,0,0,0,0,0,0,-0.0264,-0.0259,-0.0225,-0.0221,-0.0216,-0.0155,-0.0152,-0.011,-0.0113,-0.015,-0.0111,-0.0111,-0.0052,-0.0044,-0.0029,0.0019,0.0024,0.0015,0.0018,0.0019,0.002,0,0,0,0,0,0,0,-0.0267,-0.0262,-0.0225,-0.0224,-0.0218,-0.0184,-0.0177,-0.0143,-0.0104,-0.0147,-0.0142,-0.0135,-0.0049,-0.0033,-0.0026,0.0025,0.0015,0.0019,0.0021,0.0022,0.0104,0.0104,0,0,0,0,0,0,-0.0283,-0.0266,-0.0228,-0.0223,-0.024,-0.0184,-0.0176,-0.0174,-0.0105,-0.0094,-0.0136,-0.0132,-0.0039,-0.003,-0.0022,0.0012,0.0019,0.0023,0.0025,0.0104,0.0104,0.0104,0,0,0,0,0,0,-0.0285,-0.0281,-0.0231,-0.0242,-0.0234,-0.0184,-0.0182,-0.0173,-0.0156,-0.0097,-0.0085,-0.0129,-0.0039,-0.0027,0.001,0.0016,0.0024,0.0028,0.0104,0.0104,0.0104,0.0069,0,0,0,0,0,0,-0.0287,-0.0282,-0.0291,-0.0244,-0.0234,-0.0217,-0.0183,-0.0172,-0.0153,-0.0148,-0.0088,-0.0077,-0.0037,0.0004,0.0014,0.0022,0.0031,0.0105,0.0104,0.0104,0.0071,0.0068,0.0066,0,0,0,0,0,-0.0289,-0.0307,-0.0292,-0.0287,-0.0246,-0.0217,-0.0209,-0.017,-0.0154,-0.0152,-0.0106,-0.0078,0.001,0.0007,0.0019,0.0028,0.0105,0.0104,0.0104,0.0072,0.0069,0.0066,0,0,0,0,0,0,-0.0335,-0.0301,-0.0284,-0.0291,-0.0259,-0.0208,-0.0206,-0.0177,-0.014,-0.0136,-0.0078,-0.0064,-0.003,-0.0001,-0.0005,0.0049,0.0061,0.0063,0.0032,0.003,0.0027,0.002,0.0034,0,0,0,0,0,-0.035,-0.0354,-0.031,-0.0318,-0.0305,-0.0257,-0.0242,-0.0214,-0.0173,-0.0156,-0.0112,-0.0066,-0.0022,0.0003,0.0039,0.0069,0.0104,0.0081,0.0079,0.0077,0.0077,0.0138,0.0141,0.0104,0.0104,0.0104,0,0,-0.0374,-0.0354,-0.0358,-0.0328,-0.0301,-0.0288,-0.0246,-0.023,-0.0212,-0.0151,-0.012,-0.0075,-0.0018,0.0019,0.0037,0.0046,0.0103,0.0077,0.0074,0.0076,0.0138,0.0142,0.0145,0.0103,0.0103,0.0103,0,0,-0.042,-0.0403,-0.0418,-0.0393,-0.0357,-0.0321,-0.032,-0.0269,-0.0241,-0.0206,-0.0154,-0.0103,-0.0049,0.0006,0.0039,0.0044,0.0085,0.0047,0.0037,0.0096,0.0099,0.0103,0.0142,0.0149,0.0051,0.0051,0.0051,0,-0.045,-0.0457,-0.0419,-0.0417,-0.0402,-0.0341,-0.0344,-0.0305,-0.0247,-0.022,-0.0206,-0.0099,-0.005,0.0018,0.0023,0.0041,0.0069,0.0044,0.0093,0.0098,0.0103,0.0141,0.015,0.0049,0.0049,0.005,0.005,0,-0.0498,-0.0499,-0.0506,-0.0482,-0.046,-0.0455,-0.0393,-0.0365,-0.0323,-0.0273,-0.0207,-0.0132,-0.0065,-0.004,-0.0003,0.0055,0.0062,0.008,0.0101,0.0104,0.0144,0.0154,0.0047,0.0047,0.0048,0.0048,0,0,-0.0575,-0.0547,-0.0549,-0.0546,-0.0493,-0.0481,-0.0446,-0.0392,-0.0365,-0.0295,-0.025,-0.0156,-0.0107,-0.0067,-0.0008,0.0051,0.011,0.0074,0.0077,0.0111,0.0223,0.0271,0.0286,0.0135,0.0136,0.0138,0.0234,0,-0.0623,-0.0648,-0.0608,-0.0617,-0.0622,-0.0548,-0.0522,-0.046,-0.0395,-0.0337,-0.0233,-0.0174,-0.0119,-0.0087,-0.0016,0.0079,0.0136,0.0081,0.0215,0.0219,0.0261,0.03,0.0352,0.0447,0.0244,0.0246,0.0247,0,-0.0679,-0.0687,-0.0715,-0.0683,-0.0677,-0.0665,-0.0605,-0.0571,-0.0461,-0.0409,-0.0317,-0.0236,-0.0125,-0.0091,0.0081,0.0041,0.0125,0.0198,0.0204,0.0269,0.0286,0.0413,0.0473,0.0633,0.0263,0.0261,0.026,0,-0.076,-0.0755,-0.0782,-0.0773,-0.073,-0.0719,-0.0689,-0.0599,-0.0566,-0.0454,-0.0415,-0.0272,-0.0203,-0.007,0.0097,0.0084,0.0278,0.0281,0.0404,0.0407,0.049,0.0499,0.0724,0.0396,0.0395,0.0395,0.0395,0,-0.0826,-0.0842,-0.0825,-0.0839,-0.0861,-0.0799,-0.0791,-0.0734,-0.0648,-0.0606,-0.0465,-0.0394,-0.0196,-0.0052,0.0086,0.0287,0.0276,0.0415,0.0447,0.0478,0.0483,0.0656,0.0704,0.0399,0.0398,0.0397,0.0397,0,-0.0903,-0.0893,-0.092,-0.0902,-0.0902,-0.0918,-0.0877,-0.0862,-0.077,-0.071,-0.0678,-0.0484,-0.0285,-0.008,0.0148,0.0274,0.0561,0.0524,0.054,0.0573,0.0825,0.0866,0.1091,0.1182,0.0669,0.0671,0.0673,0,-0.0943,-0.0968,-0.0988,-0.1017,-0.1011,-0.1021,-0.1026,-0.0943,-0.0915,-0.0756,-0.073,-0.0521,-0.0341,0.0021,0.0286,0.0552,0.0658,0.0731,0.0728,0.0868,0.0938,0.0957,0.1017,0.0818,0.0821,0.0823,0.0825,0,-0.1009,-0.1016,-0.1042,-0.1116,-0.114,-0.1158,-0.1149,-0.1141,-0.1025,-0.0934,-0.0765,-0.0603,-0.0227,0.0141,0.0485,0.0634,0.0857,0.0782,0.0942,0.1094,0.1117,0.1209,0.0704,0.0845,0.0843,0.0841,0.084,0.0839,-0.105,-0.1097,-0.1142,-0.1202,-0.1241,-0.127,-0.1268,-0.1217,-0.1144,-0.0953,-0.0799,-0.0492,0.0021,0.0542,0.0719,0.1102,0.1032,0.1207,0.1248,0.1257,0.1351,0.0879,0.1046,0.1045,0.1044,0.1044,0.1043,0,-0.1101,-0.1154,-0.1225,-0.1289,-0.1339,-0.1337,-0.1327,-0.1275,-0.1167,-0.0935,-0.0712,-0.0105,0.0401,0.0844,0.1387,0.1573,0.1601,0.1651,0.1707,0.1749,0.1361,0.1376,0.1605,0.1605,0.1605,0.1605,0.1605,0.1605,-0.1127,-0.1211,-0.1253,-0.1351,-0.1392,-0.1413,-0.1395,-0.1281,-0.1105,-0.0691,-0.0311,0.0001,0.0629,0.1514,0.1998,0.2015,0.2163,0.2133,0.2211,0.1959,0.192,0.1884,0.1914,0.2252,0.2252,0.2599,0.2603,0.2605]}],[{"header":{"parameterUnit":"m.s-1","parameterCategory":2,"la1":30.2991,"la2":30.254,"lo1":-89.0895,"lo2":-89.0444,"dy":0.0017,"dx":0.0017,"nx":28,"ny":28,"refTime":"2024-03-14T03:00:00:Z","depth":"2","parameterNumber":2,"parameterNumberName":"U-component_of_CURRENTS"},"data":[0,0,0,0,0,0,0,0,0,0,0,0,0,0,0,0,0,0,0,0,0,0,0,0,0,0,0,0,0,0,0,0,0,0,0,0,0,0,0,0,0,0,0,0,0,0,0,0,0,0,0,0,0,0,0,0,0,0,-0.2788,-0.2789,0,-0.2819,-0.2819,-0.2819,-0.2757,-0.2755,-0.2754,-0.2752,-0.272,-0.2721,-0.2721,0,0,0,0,0,0,0,0,0,0,0,0,0,-0.268,-0.2682,-0.2788,-0.2789,-0.279,-0.2819,-0.2819,-0.2819,-0.2757,-0.2755,-0.2753,-0.2751,-0.272,-0.272,-0.2721,0,0,0,0,0,0,0,0,0,0,0,0,0,-0.2717,-0.2683,-0.2788,-0.2765,-0.2763,-0.2819,-0.2819,-0.2819,-0.2758,-0.2755,-0.2753,-0.275,-0.2719,-0.272,-0.2721,-0.2779,0,0,-0.2725,-0.2725,0,0,0,0,0,0,0,0,-0.2715,-0.2721,-0.2768,-0.2767,-0.2765,-0.2785,-0.2769,-0.2804,-0.2758,-0.2756,-0.2752,-0.2749,-0.274,-0.2739,-0.2746,-0.2778,-0.2776,-0.2725,-0.2726,-0.2726,-0.2726,0,0,0,0,0,0,0,-0.2713,-0.2719,-0.2797,-0.2769,-0.2767,-0.2755,-0.2757,-0.2776,-0.2758,-0.2756,-0.2753,-0.2763,-0.2738,-0.2746,-0.2745,-0.2776,-0.2725,-0.2726,-0.2727,-0.2727,-0.2808,-0.2809,0,0,0,0,0,0,-0.2719,-0.2717,-0.2796,-0.2798,-0.2737,-0.2759,-0.2761,-0.2778,-0.2759,-0.2755,-0.2765,-0.276,-0.2745,-0.2744,-0.2744,-0.2776,-0.2726,-0.2727,-0.2728,-0.2807,-0.2808,-0.281,0,0,0,0,0,0,-0.2717,-0.2727,-0.2795,-0.276,-0.2768,-0.2764,-0.2783,-0.278,-0.278,-0.2767,-0.276,-0.2767,-0.2743,-0.2742,-0.2757,-0.2775,-0.2728,-0.2729,-0.2805,-0.2807,-0.2809,-0.2862,0,0,0,0,0,0,-0.2714,-0.2726,-0.274,-0.2761,-0.2771,-0.2829,-0.2786,-0.2783,-0.2792,-0.2785,-0.2768,-0.2762,-0.2741,-0.2756,-0.2759,-0.2775,-0.2729,-0.2803,-0.2806,-0.2808,-0.2858,-0.2866,-0.2872,0,0,0,0,0,-0.271,-0.2741,-0.2741,-0.275,-0.2791,-0.2831,-0.2835,-0.282,-0.2795,-0.2807,-0.279,-0.2762,-0.2775,-0.2759,-0.2761,-0.2779,-0.2801,-0.2805,-0.2808,-0.2855,-0.2864,-0.2872,0,0,0,0,0,0,-0.2699,-0.2739,-0.2738,-0.2778,-0.2804,-0.2822,-0.2835,-0.2829,-0.2829,-0.2818,-0.279,-0.2785,-0.2803,-0.2794,-0.2776,-0.2811,-0.2781,-0.2786,-0.2816,-0.2825,-0.2832,-0.2803,-0.273,0,0,0,0,0,-0.2709,-0.2737,-0.2773,-0.2803,-0.282,-0.283,-0.2844,-0.2841,-0.2847,-0.2843,-0.2832,-0.2823,-0.2826,-0.2824,-0.2829,-0.2858,-0.282,-0.287,-0.2876,-0.2882,-0.2862,-0.2828,-0.2828,-0.2821,-0.2821,-0.2821,0,0,-0.271,-0.2737,-0.2751,-0.2802,-0.2818,-0.2848,-0.283,-0.2861,-0.2874,-0.2843,-0.2854,-0.2852,-0.284,-0.2862,-0.2869,-0.2852,-0.287,-0.2886,-0.2891,-0.2867,-0.2831,-0.2831,-0.2831,-0.2823,-0.2823,-0.2822,0,0,-0.2726,-0.2757,-0.2783,-0.2813,-0.2853,-0.2867,-0.2879,-0.2907,-0.2904,-0.2933,-0.2905,-0.2906,-0.2927,-0.2908,-0.2903,-0.2955,-0.2909,-0.297,-0.2978,-0.2946,-0.2946,-0.2944,-0.2912,-0.2907,-0.297,-0.297,-0.297,0,-0.2721,-0.2761,-0.2797,-0.2832,-0.2851,-0.2876,-0.2902,-0.2922,-0.2946,-0.2944,-0.2939,-0.2944,-0.2939,-0.2938,-0.2954,-0.2966,-0.2943,-0.2947,-0.2952,-0.295,-0.2948,-0.2914,-0.2908,-0.2973,-0.2973,-0.2972,-0.2972,0,-0.2755,-0.2788,-0.281,-0.2856,-0.2888,-0.292,-0.2955,-0.2979,-0.2983,-0.2988,-0.2998,-0.2995,-0.2983,-0.2999,-0.2992,-0.2985,-0.2972,-0.2966,-0.2924,-0.2951,-0.2915,-0.2908,-0.2977,-0.2976,-0.2975,-0.2975,0,0,-0.2724,-0.2812,-0.2814,-0.2832,-0.29,-0.2923,-0.2965,-0.2993,-0.2996,-0.3023,-0.3015,-0.303,-0.3018,-0.3011,-0.3007,-0.2986,-0.2965,-0.2975,-0.2972,-0.293,-0.2894,-0.2854,-0.2842,-0.2963,-0.2962,-0.2961,-0.288,0,-0.2725,-0.2779,-0.283,-0.2869,-0.2895,-0.2941,-0.2972,-0.3003,-0.3022,-0.3031,-0.3025,-0.3024,-0.3027,-0.3023,-0.3005,-0.2977,-0.2946,-0.2986,-0.2884,-0.288,-0.283,-0.2832,-0.2628,-0.2536,-0.2873,-0.2871,-0.2871,0,-0.2719,-0.276,-0.2798,-0.286,-0.2875,-0.2903,-0.2939,-0.2973,-0.3004,-0.3018,-0.302,-0.3021,-0.3004,-0.3001,-0.2941,-0.2971,-0.2929,-0.2902,-0.2898,-0.2827,-0.2825,-0.2562,-0.251,-0.2858,-0.2859,-0.286,-0.2861,0,-0.2644,-0.2725,-0.2745,-0.277,-0.2854,-0.287,-0.2906,-0.2952,-0.2973,-0.2999,-0.301,-0.2998,-0.2984,-0.2941,-0.2905,-0.2919,-0.2831,-0.2838,-0.2755,-0.2752,-0.2537,-0.2517,-0.2768,-0.2769,-0.2769,-0.2769,-0.2769,0,-0.2607,-0.262,-0.271,-0.2721,-0.2737,-0.2818,-0.2832,-0.2873,-0.2927,-0.2937,-0.2985,-0.2981,-0.2968,-0.2932,-0.2892,-0.2801,-0.2814,-0.2738,-0.2721,-0.2555,-0.2539,-0.2783,-0.2786,-0.2766,-0.2767,-0.2767,-0.2768,0,-0.2505,-0.2572,-0.2596,-0.268,-0.2699,-0.2704,-0.2784,-0.2803,-0.2871,-0.2886,-0.2895,-0.2949,-0.2908,-0.2887,-0.2813,-0.2771,-0.2697,-0.2657,-0.247,-0.2433,-0.2642,-0.2649,-0.2546,-0.2544,-0.2542,-0.254,-0.2539,0,-0.2454,-0.2458,-0.2531,-0.2544,-0.2577,-0.2612,-0.264,-0.2741,-0.2769,-0.2854,-0.2849,-0.2853,-0.2824,-0.2731,-0.2648,-0.2552,-0.2626,-0.232,-0.2306,-0.2621,-0.2615,-0.2626,-0.2635,-0.2043,-0.2038,-0.2034,-0.203,0,-0.2342,-0.2368,-0.239,-0.2421,-0.245,-0.2479,-0.2529,-0.255,-0.2664,-0.2694,-0.2718,-0.2709,-0.2654,-0.2475,-0.2384,-0.2304,-0.2327,-0.2231,-0.2567,-0.2156,-0.2147,-0.2143,-0.2167,-0.1991,-0.1995,-0.1998,-0.2,-0.2002,-0.2235,-0.2225,-0.2258,-0.2267,-0.2307,-0.2316,-0.2285,-0.2364,-0.2384,-0.2382,-0.2492,-0.2406,-0.239,-0.2147,-0.2041,-0.1951,-0.2106,-0.1997,-0.2009,-0.2026,-0.2007,-0.1998,-0.181,-0.1812,-0.1815,-0.1817,-0.1819,0,-0.2092,-0.2098,-0.2106,-0.2112,-0.2086,-0.2159,-0.2182,-0.2122,-0.2088,-0.2127,-0.2109,-0.1895,-0.1797,-0.1786,-0.1598,-0.1576,-0.1549,-0.1504,-0.1459,-0.1498,-0.1532,-0.1489,-0.1153,-0.1151,-0.1149,-0.1148,0,0,-0.2016,-0.1968,-0.1974,-0.1874,-0.188,-0.1785,-0.176,-0.1704,-0.1683,-0.1583,-0.1539,-0.1662,-0.1722,-0.1432,-0.1372,-0.1229,-0.1345,-0.1166,-0.1696,-0.168,-0.1712,-0.181,-0.1785,0,0,0,0,0]},{"header":{"parameterUnit":"m.s-1","parameterCategory":2,"la1":30.2991,"la2":30.254,"lo1":-89.0895,"lo2":-89.0444,"dy":0.0017,"dx":0.0017,"nx":28,"ny":28,"refTime":"2024-03-14T03:00:00:Z","depth":"2","parameterNumber":3,"parameterNumberName":"V-component_of_CURRENTS"},"data":[0,0,0,0,0,0,0,0,0,0,0,0,0,0,0,0,0,0,0,0,0,0,0,0,0,0,0,0,0,0,0,0,0,0,0,0,0,0,0,0,0,0,0,0,0,0,0,0,0,0,0,0,0,0,0,0,0,0,-0.0298,-0.0297,0,-0.022,-0.0219,-0.0218,-0.016,-0.0159,-0.0159,-0.0158,-0.0054,-0.0052,-0.0049,0,0,0,0,0,0,0,0,0,0,0,0,0,-0.0341,-0.0341,-0.0298,-0.0297,-0.0296,-0.022,-0.0219,-0.0218,-0.016,-0.0159,-0.0159,-0.0158,-0.0055,-0.0052,-0.0049,0,0,0,0,0,0,0,0,0,0,0,0,0,-0.0298,-0.0341,-0.0298,-0.0258,-0.0254,-0.0221,-0.0219,-0.0218,-0.016,-0.0159,-0.0158,-0.0158,-0.0056,-0.0052,-0.0049,-0.0041,0,0,-0.0038,-0.0037,0,0,0,0,0,0,0,0,-0.0301,-0.0297,-0.0265,-0.0261,-0.0256,-0.02,-0.0196,-0.0158,-0.016,-0.0195,-0.0158,-0.0157,-0.0101,-0.0094,-0.008,-0.0036,-0.0031,-0.0038,-0.0036,-0.0034,-0.0033,0,0,0,0,0,0,0,-0.0304,-0.0299,-0.0266,-0.0264,-0.0259,-0.0226,-0.022,-0.0189,-0.0152,-0.0192,-0.0187,-0.018,-0.0099,-0.0084,-0.0077,-0.003,-0.0038,-0.0035,-0.0033,-0.0031,0.0042,0.0042,0,0,0,0,0,0,-0.0319,-0.0303,-0.0269,-0.0264,-0.0278,-0.0226,-0.0219,-0.0218,-0.0152,-0.0142,-0.0181,-0.0178,-0.009,-0.0081,-0.0073,-0.0044,-0.0034,-0.0031,-0.0029,0.0042,0.0042,0.0042,0,0,0,0,0,0,-0.032,-0.0317,-0.0272,-0.0282,-0.0274,-0.0227,-0.0226,-0.0217,-0.0201,-0.0145,-0.0134,-0.0174,-0.0089,-0.0078,-0.0044,-0.004,-0.0029,-0.0026,0.0042,0.0042,0.0042,0.0004,0,0,0,0,0,0,-0.0322,-0.0318,-0.0326,-0.0283,-0.0274,-0.026,-0.0226,-0.0216,-0.0198,-0.0193,-0.0136,-0.0125,-0.0088,-0.005,-0.0041,-0.0035,-0.0023,0.0043,0.0042,0.0042,0.0006,0.0003,0.0,0,0,0,0,0,-0.0324,-0.0341,-0.0327,-0.0323,-0.0286,-0.026,-0.0253,-0.0215,-0.0199,-0.0198,-0.0154,-0.0127,-0.0045,-0.0047,-0.0036,-0.003,0.0043,0.0042,0.0042,0.0007,0.0004,0.0,0,0,0,0,0,0,-0.0367,-0.0336,-0.0319,-0.0327,-0.0298,-0.0251,-0.025,-0.0222,-0.0187,-0.0183,-0.0127,-0.0114,-0.0084,-0.0056,-0.0059,-0.0011,0.0002,0.0004,-0.0028,-0.0031,-0.0033,-0.004,-0.002,0,0,0,0,0,-0.0381,-0.0386,-0.0345,-0.0353,-0.0342,-0.0297,-0.0283,-0.0257,-0.0219,-0.0203,-0.0161,-0.0117,-0.0078,-0.0054,-0.0022,0.0006,0.0042,0.0016,0.0013,0.0011,0.0012,0.0071,0.0075,0.0041,0.0041,0.0041,0,0,-0.0404,-0.0385,-0.039,-0.0363,-0.0338,-0.0327,-0.0287,-0.0272,-0.0257,-0.0198,-0.0171,-0.0129,-0.0076,-0.0043,-0.0027,-0.0016,0.0037,0.001,0.0008,0.0011,0.0072,0.0075,0.0078,0.004,0.004,0.004,0,0,-0.0448,-0.0431,-0.0447,-0.0424,-0.0392,-0.0359,-0.0358,-0.0311,-0.0285,-0.0255,-0.0206,-0.0158,-0.0109,-0.0058,-0.0028,-0.0027,0.0016,-0.0025,-0.0034,0.0023,0.0027,0.003,0.0073,0.0081,-0.002,-0.002,-0.002,0,-0.0476,-0.0484,-0.0448,-0.0449,-0.0435,-0.0378,-0.0382,-0.0347,-0.0294,-0.0269,-0.0255,-0.0157,-0.0112,-0.0051,-0.0048,-0.0031,-0.0,-0.0025,0.002,0.0025,0.0029,0.0073,0.0082,-0.0022,-0.0022,-0.0022,-0.0021,0,-0.0523,-0.0525,-0.0532,-0.0512,-0.0492,-0.0488,-0.0433,-0.0407,-0.0368,-0.0322,-0.0262,-0.0193,-0.013,-0.0109,-0.0075,-0.0021,-0.001,0.0006,0.0029,0.0031,0.0076,0.0086,-0.0025,-0.0024,-0.0023,-0.0023,0,0,-0.0595,-0.0572,-0.0574,-0.0571,-0.0524,-0.0514,-0.0485,-0.0436,-0.0409,-0.0347,-0.0304,-0.0222,-0.0174,-0.0137,-0.0082,-0.0025,0.0035,-0.0001,0.0003,0.0042,0.0151,0.0194,0.0209,0.0057,0.0059,0.006,0.0167,0,-0.0641,-0.0667,-0.0632,-0.0642,-0.0647,-0.0579,-0.0557,-0.0501,-0.0441,-0.0384,-0.0289,-0.0235,-0.0187,-0.0154,-0.0088,0.0004,0.006,0.0003,0.0143,0.0147,0.0187,0.0223,0.0186,0.0282,0.0177,0.0179,0.018,0,-0.0695,-0.0704,-0.0732,-0.0703,-0.0697,-0.0688,-0.0632,-0.0602,-0.05,-0.0451,-0.0364,-0.0289,-0.0184,-0.0154,0.0012,-0.0029,0.0055,0.0125,0.0131,0.0194,0.0211,0.0266,0.0305,0.0198,0.0197,0.0195,0.0194,0,-0.077,-0.0767,-0.0794,-0.0786,-0.0747,-0.0738,-0.0711,-0.0627,-0.0596,-0.049,-0.045,-0.0317,-0.0249,-0.0123,0.0037,0.0022,0.0216,0.0215,0.0333,0.0336,0.0345,0.0347,0.0327,0.0327,0.0326,0.0326,0.0326,0,-0.0832,-0.0848,-0.0833,-0.0847,-0.0868,-0.0811,-0.0802,-0.075,-0.0668,-0.0626,-0.0495,-0.0424,-0.0238,-0.0098,0.0032,0.0226,0.0218,0.0344,0.0376,0.033,0.0329,0.0286,0.028,0.033,0.0329,0.0328,0.0328,0,-0.0903,-0.0895,-0.0922,-0.0905,-0.0906,-0.0921,-0.0881,-0.0866,-0.0778,-0.0718,-0.0687,-0.0499,-0.0306,-0.0114,0.0106,0.0222,0.0397,0.0462,0.0392,0.0415,0.0473,0.0463,0.0599,0.0602,0.0604,0.0606,0.0607,0,-0.0941,-0.0965,-0.0984,-0.1011,-0.1007,-0.1016,-0.102,-0.0941,-0.0911,-0.0756,-0.0728,-0.0525,-0.0354,-0.0005,0.0231,0.048,0.0467,0.0577,0.0553,0.0488,0.0506,0.0493,0.048,0.0543,0.0544,0.0545,0.0545,0,-0.1002,-0.1009,-0.1034,-0.1103,-0.1126,-0.1141,-0.1131,-0.112,-0.1009,-0.092,-0.0756,-0.0603,-0.0252,0.0047,0.0369,0.0497,0.0536,0.0601,0.0572,0.048,0.0445,0.0459,0.0447,0.0552,0.0551,0.0551,0.0551,0.055,-0.1039,-0.1082,-0.1125,-0.1183,-0.1219,-0.1245,-0.1242,-0.119,-0.1119,-0.0942,-0.0793,-0.0524,-0.0239,0.0239,0.0457,0.0643,0.0637,0.0672,0.0666,0.0659,0.0635,0.0606,0.0737,0.0737,0.0738,0.0738,0.0738,0,-0.1085,-0.1135,-0.1202,-0.1262,-0.1309,-0.1309,-0.1296,-0.1245,-0.1142,-0.0942,-0.0737,-0.0403,-0.0055,0.0224,0.0542,0.0735,0.0693,0.0741,0.0654,0.0647,0.0641,0.0611,0.071,0.071,0.0711,0.0711,0,0,-0.1108,-0.1186,-0.1226,-0.1318,-0.136,-0.138,-0.1363,-0.1253,-0.1099,-0.0874,-0.066,-0.0372,-0.003,0.0189,0.0426,0.0583,0.0555,0.058,0.0583,0.0445,0.0437,0.0584,0.0529,0,0,0,0,0]}],[{"header":{"parameterUnit":"m.s-1","parameterCategory":2,"la1":30.2991,"la2":30.254,"lo1":-89.0895,"lo2":-89.0444,"dy":0.0017,"dx":0.0017,"nx":28,"ny":28,"refTime":"2024-03-14T03:00:00:Z","depth":"4","parameterNumber":2,"parameterNumberName":"U-component_of_CURRENTS"},"data":[0,0,0,0,0,0,0,0,0,0,0,0,0,0,0,0,0,0,0,0,0,0,0,0,0,0,0,0,0,0,0,0,0,0,0,0,0,0,0,0,0,0,0,0,0,0,0,0,0,0,0,0,0,0,0,0,0,0,-0.1906,-0.1907,0,-0.1978,-0.1978,-0.1979,-0.1998,-0.1998,-0.1998,-0.1997,-0.206,-0.2062,-0.2063,0,0,0,0,0,0,0,0,0,0,0,0,0,-0.1787,-0.1788,-0.1906,-0.1907,-0.1908,-0.1977,-0.1978,-0.1979,-0.1998,-0.1998,-0.1998,-0.1997,-0.2059,-0.2061,-0.2063,0,0,0,0,0,0,0,0,0,0,0,0,0,-0.1844,-0.1789,-0.1906,-0.1928,-0.1931,-0.1977,-0.1978,-0.1979,-0.1998,-0.1998,-0.1998,-0.1997,-0.2058,-0.2061,-0.2064,-0.2087,0,0,-0.2072,-0.2073,0,0,0,0,0,0,0,0,-0.1841,-0.1848,-0.1923,-0.1926,-0.193,-0.1981,-0.1959,-0.2016,-0.1998,-0.197,-0.1997,-0.1997,-0.2034,-0.2039,-0.205,-0.209,-0.2092,-0.2072,-0.2074,-0.2075,-0.2076,0,0,0,0,0,0,0,-0.1837,-0.1845,-0.1932,-0.1925,-0.1929,-0.1935,-0.1942,-0.197,-0.2001,-0.1972,-0.1975,-0.1987,-0.2036,-0.2047,-0.2051,-0.2093,-0.2072,-0.2075,-0.2077,-0.2078,-0.2206,-0.2208,0,0,0,0,0,0,-0.1834,-0.1842,-0.1929,-0.1934,-0.1886,-0.1937,-0.1946,-0.1963,-0.2001,-0.2007,-0.1987,-0.1987,-0.2042,-0.2048,-0.2054,-0.2134,-0.2075,-0.2078,-0.2079,-0.2205,-0.2207,-0.2209,0,0,0,0,0,0,-0.1831,-0.1841,-0.1927,-0.1891,-0.1903,-0.194,-0.1959,-0.1964,-0.2004,-0.2012,-0.2018,-0.2024,-0.2042,-0.205,-0.2104,-0.2134,-0.2079,-0.2082,-0.2203,-0.2205,-0.2208,-0.2262,0,0,0,0,0,0,-0.1827,-0.184,-0.1868,-0.1891,-0.1905,-0.1974,-0.196,-0.1966,-0.2012,-0.2014,-0.2046,-0.205,-0.2043,-0.21,-0.2107,-0.2137,-0.2084,-0.22,-0.2204,-0.2207,-0.2258,-0.2266,-0.2273,0,0,0,0,0,-0.1823,-0.1856,-0.1869,-0.188,-0.1937,-0.1976,-0.1984,-0.2006,-0.2014,-0.204,-0.2063,-0.205,-0.2126,-0.2105,-0.2112,-0.2143,-0.2199,-0.2203,-0.2207,-0.2254,-0.2264,-0.2273,0,0,0,0,0,0,-0.1821,-0.1862,-0.1876,-0.1922,-0.1957,-0.198,-0.2014,-0.2029,-0.2069,-0.208,-0.208,-0.2086,-0.2142,-0.2142,-0.2119,-0.219,-0.2158,-0.2164,-0.2192,-0.2201,-0.2209,-0.2184,-0.2086,0,0,0,0,0,-0.1834,-0.1869,-0.1906,-0.1946,-0.1968,-0.1998,-0.2025,-0.2043,-0.2074,-0.2092,-0.2116,-0.214,-0.2161,-0.2181,-0.2202,-0.225,-0.2218,-0.2274,-0.2281,-0.2288,-0.2274,-0.2252,-0.2255,-0.2222,-0.2222,-0.2222,0,0,-0.1845,-0.1873,-0.1894,-0.1948,-0.1978,-0.2013,-0.2014,-0.2066,-0.2097,-0.2094,-0.2156,-0.2174,-0.2181,-0.2227,-0.2252,-0.2234,-0.2285,-0.2293,-0.2298,-0.228,-0.2256,-0.2258,-0.2261,-0.2224,-0.2224,-0.2223,0,0,-0.1866,-0.1911,-0.1941,-0.1976,-0.2032,-0.2052,-0.2075,-0.2123,-0.215,-0.2211,-0.2208,-0.224,-0.2296,-0.229,-0.2294,-0.2359,-0.2326,-0.2383,-0.2402,-0.2382,-0.2384,-0.2384,-0.2359,-0.2357,-0.2386,-0.2386,-0.2386,0,-0.1877,-0.1918,-0.1958,-0.1994,-0.2026,-0.2071,-0.2107,-0.2143,-0.2205,-0.2223,-0.2241,-0.2298,-0.2313,-0.2332,-0.2357,-0.2373,-0.2358,-0.2366,-0.2389,-0.2389,-0.2389,-0.2362,-0.2359,-0.2389,-0.2389,-0.2388,-0.2388,0,-0.1905,-0.1953,-0.1978,-0.2034,-0.2076,-0.212,-0.217,-0.222,-0.2263,-0.2285,-0.2338,-0.2359,-0.238,-0.2402,-0.2403,-0.2419,-0.2408,-0.2399,-0.2358,-0.2395,-0.2366,-0.2362,-0.2393,-0.2392,-0.2391,-0.2391,0,0,-0.1878,-0.1977,-0.1987,-0.2019,-0.2102,-0.2132,-0.2198,-0.2249,-0.2279,-0.2343,-0.2369,-0.2415,-0.2424,-0.2429,-0.2438,-0.2429,-0.2429,-0.2426,-0.2423,-0.2387,-0.2387,-0.2254,-0.2237,-0.2431,-0.2431,-0.243,-0.237,0,-0.1884,-0.1949,-0.2002,-0.2067,-0.2101,-0.217,-0.2219,-0.2276,-0.2325,-0.2368,-0.2388,-0.2423,-0.2435,-0.2455,-0.245,-0.2438,-0.242,-0.2446,-0.2368,-0.2365,-0.223,-0.2227,-0.2429,-0.2367,-0.2366,-0.2365,-0.2365,0,-0.1873,-0.1924,-0.1987,-0.2075,-0.2098,-0.2149,-0.2225,-0.2278,-0.2342,-0.238,-0.2414,-0.2435,-0.2448,-0.2451,-0.2424,-0.2447,-0.2419,-0.24,-0.2397,-0.2242,-0.2223,-0.2321,-0.2357,-0.2357,-0.2358,-0.2358,-0.2359,0,-0.18,-0.1903,-0.1952,-0.1986,-0.2096,-0.2141,-0.2201,-0.2278,-0.2318,-0.2385,-0.2413,-0.2433,-0.2448,-0.2423,-0.2403,-0.2419,-0.2355,-0.2363,-0.2209,-0.22,-0.2314,-0.2314,-0.2317,-0.2317,-0.2318,-0.2318,-0.2318,0,-0.1754,-0.1797,-0.193,-0.1955,-0.2014,-0.2109,-0.2169,-0.2231,-0.2312,-0.2337,-0.2412,-0.2417,-0.2445,-0.2422,-0.2394,-0.2279,-0.2342,-0.219,-0.2164,-0.2343,-0.2346,-0.2312,-0.2312,-0.2315,-0.2316,-0.2316,-0.2317,0,-0.1651,-0.1743,-0.1806,-0.1938,-0.1979,-0.2021,-0.2147,-0.2183,-0.2279,-0.2313,-0.2336,-0.2404,-0.237,-0.2367,-0.2319,-0.2245,-0.2162,-0.2104,-0.2289,-0.2279,-0.2025,-0.203,-0.1914,-0.1908,-0.1903,-0.19,-0.1896,0,-0.1598,-0.1624,-0.1769,-0.181,-0.1876,-0.1961,-0.2014,-0.2142,-0.2175,-0.2278,-0.227,-0.2293,-0.231,-0.2122,-0.2152,-0.2057,-0.2036,-0.1982,-0.2002,-0.1992,-0.1979,-0.1991,-0.2001,-0.1889,-0.1888,-0.1887,-0.1885,0,-0.1492,-0.1561,-0.1616,-0.1701,-0.1776,-0.1836,-0.1922,-0.1932,-0.2059,-0.2171,-0.2131,-0.2099,-0.2057,-0.2013,-0.195,-0.1892,-0.2012,-0.1934,-0.1943,-0.1961,-0.1961,-0.1956,-0.1971,-0.1869,-0.1872,-0.1873,-0.1874,0,-0.141,-0.1426,-0.1511,-0.1564,-0.1656,-0.1676,-0.1744,-0.1779,-0.1827,-0.1954,-0.1933,-0.1963,-0.2031,-0.1926,-0.1871,-0.1798,-0.1774,-0.1714,-0.1735,-0.1753,-0.1728,-0.1706,-0.149,0,0,0,0,0,-0.1318,-0.132,-0.1366,-0.1419,-0.1504,-0.1543,-0.1663,-0.1738,-0.1866,-0.1785,-0.1852,-0.1805,-0.1734,-0.1759,-0.1644,-0.1795,-0.1779,-0.1656,-0.1723,-0.1781,-0.1799,-0.1785,0,0,0,0,0,0,-0.1258,-0.1295,-0.1311,-0.1278,-0.1285,-0.135,-0.1418,-0.1511,-0.1478,-0.1615,-0.1581,-0.1682,-0.1635,-0.1749,-0.1596,-0.1601,-0.1605,-0.1689,-0.1684,-0.177,-0.1787,-0.1802,-0.1794,0,0,0,0,0]},{"header":{"parameterUnit":"m.s-1","parameterCategory":2,"la1":30.2991,"la2":30.254,"lo1":-89.0895,"lo2":-89.0444,"dy":0.0017,"dx":0.0017,"nx":28,"ny":28,"refTime":"2024-03-14T03:00:00:Z","depth":"4","parameterNumber":3,"parameterNumberName":"V-component_of_CURRENTS"},"data":[0,0,0,0,0,0,0,0,0,0,0,0,0,0,0,0,0,0,0,0,0,0,0,0,0,0,0,0,0,0,0,0,0,0,0,0,0,0,0,0,0,0,0,0,0,0,0,0,0,0,0,0,0,0,0,0,0,0,-0.026,-0.026,0,-0.0213,-0.0212,-0.0212,-0.0172,-0.0172,-0.0172,-0.0172,-0.0095,-0.0093,-0.0091,0,0,0,0,0,0,0,0,0,0,0,0,0,-0.028,-0.028,-0.026,-0.026,-0.0259,-0.0213,-0.0212,-0.0211,-0.0173,-0.0172,-0.0172,-0.0171,-0.0095,-0.0093,-0.0091,0,0,0,0,0,0,0,0,0,0,0,0,0,-0.0255,-0.028,-0.026,-0.0235,-0.0232,-0.0213,-0.0212,-0.0211,-0.0173,-0.0172,-0.0172,-0.0171,-0.0096,-0.0094,-0.0091,-0.0085,0,0,-0.0083,-0.0082,0,0,0,0,0,0,0,0,-0.0256,-0.0254,-0.0239,-0.0237,-0.0234,-0.0199,-0.0191,-0.0168,-0.0173,-0.0194,-0.0172,-0.0171,-0.0128,-0.0123,-0.0114,-0.0081,-0.0078,-0.0083,-0.0081,-0.008,-0.0079,0,0,0,0,0,0,0,-0.0258,-0.0256,-0.024,-0.0239,-0.0235,-0.0213,-0.0209,-0.0186,-0.0163,-0.0192,-0.019,-0.0186,-0.0126,-0.0117,-0.0112,-0.0077,-0.0083,-0.0081,-0.0079,-0.0078,-0.0031,-0.0031,0,0,0,0,0,0,-0.0269,-0.0258,-0.0242,-0.0239,-0.0245,-0.0214,-0.0209,-0.021,-0.0164,-0.0157,-0.0187,-0.0184,-0.0121,-0.0115,-0.0109,-0.0096,-0.008,-0.0078,-0.0076,-0.0031,-0.0031,-0.0031,0,0,0,0,0,0,-0.0269,-0.0268,-0.0244,-0.0248,-0.0243,-0.0214,-0.0215,-0.0209,-0.0201,-0.016,-0.0152,-0.0185,-0.0121,-0.0113,-0.009,-0.0092,-0.0076,-0.0074,-0.003,-0.0031,-0.0031,-0.0071,0,0,0,0,0,0,-0.027,-0.0268,-0.0277,-0.0249,-0.0243,-0.024,-0.0215,-0.0209,-0.02,-0.0197,-0.0156,-0.0148,-0.012,-0.0095,-0.0088,-0.0088,-0.0072,-0.003,-0.0031,-0.0031,-0.0069,-0.0073,-0.0076,0,0,0,0,0,-0.0271,-0.0286,-0.0278,-0.0276,-0.0255,-0.0241,-0.0236,-0.0213,-0.0201,-0.0203,-0.0172,-0.0149,-0.0094,-0.0093,-0.0085,-0.0085,-0.003,-0.003,-0.0031,-0.0068,-0.0072,-0.0075,0,0,0,0,0,0,-0.03,-0.0283,-0.0273,-0.0282,-0.0266,-0.0235,-0.0238,-0.0219,-0.0197,-0.0194,-0.0152,-0.0142,-0.0126,-0.0102,-0.0102,-0.0074,-0.0059,-0.0058,-0.0089,-0.0093,-0.0096,-0.0099,-0.007,0,0,0,0,0,-0.0311,-0.0319,-0.0294,-0.0304,-0.0297,-0.0269,-0.0262,-0.0245,-0.022,-0.021,-0.018,-0.0149,-0.0123,-0.0106,-0.0083,-0.0066,-0.0029,-0.0061,-0.0065,-0.0068,-0.0065,-0.0013,-0.0011,-0.0034,-0.0034,-0.0034,0,0,-0.0327,-0.0318,-0.0324,-0.0311,-0.0297,-0.0294,-0.0263,-0.0258,-0.0253,-0.0205,-0.0193,-0.0163,-0.0123,-0.0104,-0.0094,-0.0083,-0.0042,-0.0068,-0.0071,-0.0067,-0.0013,-0.0011,-0.0008,-0.0034,-0.0034,-0.0034,0,0,-0.0361,-0.0354,-0.037,-0.0358,-0.0341,-0.0321,-0.0322,-0.0293,-0.0278,-0.0262,-0.0226,-0.0194,-0.0161,-0.0124,-0.0103,-0.011,-0.0066,-0.0109,-0.012,-0.0069,-0.0067,-0.0064,-0.0015,-0.0008,-0.0105,-0.0105,-0.0105,0,-0.0382,-0.0394,-0.0372,-0.0379,-0.0374,-0.0336,-0.0345,-0.0325,-0.0292,-0.0276,-0.0267,-0.0199,-0.0167,-0.0126,-0.0128,-0.0116,-0.0082,-0.0108,-0.0072,-0.0069,-0.0065,-0.0016,-0.0008,-0.0107,-0.0107,-0.0107,-0.0106,0,-0.042,-0.0429,-0.0437,-0.0432,-0.0424,-0.0427,-0.0394,-0.0381,-0.0357,-0.0326,-0.0288,-0.0238,-0.0193,-0.018,-0.0155,-0.0115,-0.0098,-0.0087,-0.0062,-0.0065,-0.0014,-0.0004,-0.011,-0.0109,-0.0108,-0.0108,0,0,-0.0467,-0.0466,-0.047,-0.0473,-0.0451,-0.0448,-0.0437,-0.041,-0.0393,-0.0355,-0.0324,-0.0274,-0.0236,-0.0209,-0.0168,-0.0121,-0.0067,-0.0097,-0.0093,-0.0047,0.0046,0.0044,0.0055,-0.0049,-0.0048,-0.0047,0.0071,0,-0.0503,-0.0534,-0.0517,-0.0536,-0.0545,-0.0505,-0.0497,-0.0464,-0.0424,-0.0384,-0.0318,-0.0279,-0.0249,-0.0224,-0.0172,-0.0092,-0.0043,-0.01,0.0041,0.0046,0.0046,0.0065,-0.0042,0.0079,0.0081,0.0083,0.0084,0,-0.0541,-0.0557,-0.0591,-0.0583,-0.0582,-0.0586,-0.0554,-0.054,-0.047,-0.0435,-0.0373,-0.0316,-0.0236,-0.0217,-0.0076,-0.0114,-0.0041,0.0021,0.0027,0.0047,0.0062,0.0084,0.0103,0.0101,0.01,0.0099,0.0098,0,-0.0585,-0.0601,-0.0633,-0.0633,-0.0621,-0.0625,-0.0614,-0.0561,-0.0541,-0.0464,-0.043,-0.033,-0.0271,-0.017,-0.0039,-0.0055,0.0121,0.0115,0.0185,0.0186,0.0169,0.0165,0.0212,0.0212,0.0212,0.0211,0.0211,0,-0.0621,-0.0643,-0.066,-0.0676,-0.0705,-0.0675,-0.068,-0.0647,-0.059,-0.0557,-0.0463,-0.0402,-0.0257,-0.0137,-0.0033,0.0115,0.0131,0.0191,0.0219,0.0149,0.0141,0.0177,0.0171,0.0216,0.0215,0.0214,0.0213,0,-0.0654,-0.0669,-0.0704,-0.0718,-0.0729,-0.0749,-0.074,-0.0729,-0.0669,-0.0619,-0.0595,-0.0445,-0.0286,-0.0133,0.0053,0.0124,0.0261,0.0308,0.0232,0.0252,0.0288,0.0279,0.0389,0.039,0.0391,0.0392,0.0392,0,-0.0671,-0.0697,-0.0747,-0.078,-0.0793,-0.0818,-0.083,-0.0783,-0.0757,-0.0639,-0.0606,-0.0445,-0.0335,-0.0055,0.0088,0.0296,0.0313,0.0377,0.032,0.0293,0.0309,0.0298,0.0288,0.0394,0.0394,0.0394,0.0394,0,-0.0695,-0.0721,-0.0752,-0.083,-0.0866,-0.0891,-0.0896,-0.0879,-0.0802,-0.0752,-0.059,-0.0435,-0.0248,-0.0047,0.0124,0.0264,0.033,0.0386,0.0384,0.0331,0.0299,0.0312,0.0301,0.0397,0.0397,0.0397,0.0396,0,-0.0708,-0.0743,-0.0799,-0.0857,-0.0915,-0.0939,-0.0938,-0.0878,-0.0834,-0.069,-0.0637,-0.0423,-0.0292,-0.0061,0.0094,0.0237,0.0252,0.0271,0.0276,0.0274,0.0196,0.0136,0.0217,0,0,0,0,0,-0.0712,-0.0756,-0.082,-0.0879,-0.0938,-0.0966,-0.0964,-0.0941,-0.0867,-0.0757,-0.0688,-0.0507,-0.0242,-0.0114,0.0028,0.0073,0.0248,0.0238,0.0265,0.0413,0.041,0.0336,0,0,0,0,0,0,-0.0715,-0.0781,-0.0817,-0.0885,-0.0928,-0.0977,-0.0977,-0.0931,-0.0847,-0.0754,-0.0601,-0.0498,-0.0236,-0.0323,0.0024,0.0069,0.0098,0.0373,0.0375,0.0415,0.0412,0.0409,0.0332,0,0,0,0,0]}]]